Location: Waco, TX
(31.5480°N, 97.1670°W)
Time: 09:22:47
(UTC-05:00)

ISS - Pass Details

Date: 20 May 2017
Orbit: 402 x 409 km, 51.6° (Epoch: 25 May)

Event Time Altitude Azimuth Distance (km) Brightness Sun altitude
Rises 22:47:58 0° 220° (SW) 2,317 - -26.0°
Reaches altitude 10° 22:50:03 10° 218° (SW) 1,459 - -26.3°
Maximum altitude 22:53:18 73° 134° (SE) 427 - -26.7°
Drops below altitude 10° 22:56:35 10° 49° (NE) 1,465 - -27.2°
Sets 22:58:40 0° 47° (NE) 2,326 - -27.4°
